| time (UTC) | temp C | wind direction | speed KPH | gust KPH | rain 1hr cm | rain 24hr cm | rain mn cm | humidity % | barometer mb |
| 20260905010521 | 21 | 248 | 1.6 | 1.6 | 0.00 | 0.00 | 0.00 | 68 | 1011.2 |
| 20260905005521 | 22 | 225 | 1.6 | 3.2 | 0.00 | 0.00 | 0.00 | 67 | 1011.2 |
| 20260905004521 | 22 | 248 | 1.6 | 3.2 | 0.00 | 0.00 | 0.00 | 65 | 1011.2 |
| 20260905003521 | 23 | 248 | 1.6 | 4.8 | 0.00 | 0.00 | 0.00 | 64 | 1011.0 |
| 20260905002601 | 23 | 315 | 1.6 | 4.8 | 0.00 | 0.00 | 0.00 | 63 | 1011.0 |
| 20260905001521 | 23 | 315 | 1.6 | 4.8 | 0.00 | 0.00 | 0.00 | 63 | 1010.9 |
| 20260905000521 | 23 | 293 | 1.6 | 6.4 | 0.00 | 0.00 | 0.00 | 64 | 1010.8 |
| 20260904235541 | 23 | 338 | 3.2 | 6.4 | 0.00 | 0.00 | 0.00 | 63 | 1010.8 |
| 20260904234521 | 23 | 0 | 1.6 | 4.8 | 0.00 | 0.00 | 0.00 | 63 | 1010.8 |
| 20260904233601 | 23 | 338 | 6.4 | 9.7 | 0.00 | 0.00 | 0.00 | 63 | 1010.8 |
| 20260904232521 | 23 | 338 | 4.8 | 9.7 | 0.00 | 0.00 | 0.00 | 61 | 1010.7 |
| 20260904231524 | 23 | 338 | 6.4 | 11.3 | 0.00 | 0.00 | 0.00 | 61 | 1010.7 |
| 20260904230521 | 23 | 23 | 6.4 | 11.3 | 0.00 | 0.00 | 0.00 | 60 | 1010.7 |
| 20260904225522 | 23 | 23 | 6.4 | 9.7 | 0.00 | 0.00 | 0.00 | 59 | 1010.5 |
| 20260904224521 | 24 | 338 | 6.4 | 11.3 | 0.00 | 0.00 | 0.00 | 56 | 1010.6 |
| 20260904223521 | 24 | 338 | 9.7 | 17.7 | 0.00 | 0.00 | 0.00 | 57 | 1010.5 |
| 20260904222521 | 25 | 23 | 9.7 | 17.7 | 0.00 | 0.00 | 0.00 | 56 | 1010.3 |
| 20260904221541 | 25 | 338 | 9.7 | 20.9 | 0.00 | 0.00 | 0.00 | 55 | 1010.3 |
| 20260904220521 | 25 | 338 | 12.9 | 19.3 | 0.00 | 0.00 | 0.00 | 54 | 1010.4 |
| 20260904215521 | 25 | 338 | 11.3 | 22.5 | 0.00 | 0.00 | 0.00 | 55 | 1010.4 |
| 20260904214521 | 25 | 338 | 11.3 | 22.5 | 0.00 | 0.00 | 0.00 | 55 | 1010.6 |
| 20260904213521 | 25 | 23 | 6.4 | 11.3 | 0.00 | 0.00 | 0.00 | 56 | 1010.5 |
| 20260904212521 | 25 | 23 | 9.7 | 19.3 | 0.00 | 0.00 | 0.00 | 55 | 1010.4 |
| 20260904211521 | 25 | 338 | 11.3 | 19.3 | 0.00 | 0.00 | 0.00 | 56 | 1010.6 |
| 20260904210521 | 25 | 338 | 12.9 | 25.7 | 0.00 | 0.00 | 0.00 | 55 | 1010.6 |
| 20260904205541 | 25 | 338 | 9.7 | 19.3 | 0.00 | 0.00 | 0.00 | 55 | 1010.7 |
| 20260904204522 | 26 | 338 | 11.3 | 25.7 | 0.00 | 0.00 | 0.00 | 53 | 1010.7 |
| 20260904203521 | 26 | 338 | 14.5 | 27.4 | 0.00 | 0.00 | 0.00 | 51 | 1010.8 |
| 20260904202520 | 26 | 338 | 14.5 | 29.0 | 0.00 | 0.00 | 0.00 | 52 | 1010.9 |
| 20260904201521 | 26 | 338 | 9.7 | 19.3 | 0.00 | 0.00 | 0.00 | 53 | 1011.0 |
| 20260904200522 | 26 | 293 | 8.0 | 20.9 | 0.00 | 0.00 | 0.00 | 54 | 1011.0 |
| 20260904195541 | 26 | 293 | 11.3 | 25.7 | 0.00 | 0.00 | 0.00 | 51 | 1011.1 |
| 20260904194521 | 26 | 315 | 9.7 | 19.3 | 0.00 | 0.00 | 0.00 | 54 | 1011.1 |
| 20260904193600 | 26 | 293 | 8.0 | 16.1 | 0.00 | 0.00 | 0.00 | 53 | 1011.2 |
| 20260904192520 | 26 | 293 | 12.9 | 24.1 | 0.00 | 0.00 | 0.00 | 54 | 1011.4 |
| 20260904191520 | 26 | 338 | 11.3 | 20.9 | 0.00 | 0.00 | 0.00 | 53 | 1011.4 |
| 20260904190520 | 26 | 293 | 11.3 | 22.5 | 0.00 | 0.00 | 0.00 | 54 | 1011.4 |
| 20260904185520 | 26 | 293 | 11.3 | 20.9 | 0.00 | 0.00 | 0.00 | 54 | 1011.4 |
| 20260904184521 | 26 | 338 | 9.7 | 19.3 | 0.00 | 0.00 | 0.00 | 55 | 1011.5 |
| 20260904183520 | 26 | 293 | 11.3 | 20.9 | 0.00 | 0.00 | 0.00 | 55 | 1011.6 |
| 20260904182520 | 25 | 315 | 6.4 | 14.5 | 0.00 | 0.00 | 0.00 | 56 | 1011.5 |
| 20260904181540 | 25 | 338 | 9.7 | 19.3 | 0.00 | 0.00 | 0.00 | 54 | 1011.6 |
| 20260904180540 | 26 | 338 | 9.7 | 20.9 | 0.00 | 0.00 | 0.00 | 54 | 1011.6 |
| 20260904175520 | 26 | 293 | 9.7 | 20.9 | 0.00 | 0.00 | 0.00 | 53 | 1011.8 |
| 20260904174520 | 26 | 293 | 9.7 | 17.7 | 0.00 | 0.00 | 0.00 | 52 | 1011.8 |
| 20260904173620 | 26 | 293 | 9.7 | 19.3 | 0.00 | 0.00 | 0.00 | 54 | 1011.8 |
| 20260904172520 | 25 | 293 | 8.0 | 17.7 | 0.00 | 0.00 | 0.00 | 56 | 1011.8 |
| 20260904171600 | 26 | 293 | 8.0 | 14.5 | 0.00 | 0.00 | 0.00 | 53 | 1011.9 |
| 20260904170540 | 25 | 338 | 12.9 | 19.3 | 0.00 | 0.00 | 0.00 | 57 | 1011.9 |
| 20260904165520 | 25 | 338 | 12.9 | 24.1 | 0.00 | 0.00 | 0.00 | 54 | 1012.1 |
| 20260904164520 | 25 | 338 | 14.5 | 24.1 | 0.00 | 0.00 | 0.00 | 58 | 1012.0 |
| 20260904163520 | 25 | 338 | 11.3 | 22.5 | 0.00 | 0.00 | 0.00 | 58 | 1011.9 |
| 20260904162520 | 25 | 338 | 11.3 | 22.5 | 0.00 | 0.00 | 0.00 | 59 | 1012.0 |
| 20260904161520 | 25 | 315 | 8.0 | 16.1 | 0.00 | 0.00 | 0.00 | 62 | 1012.1 |
| 20260904160519 | 25 | 338 | 8.0 | 17.7 | 0.00 | 0.00 | 0.00 | 61 | 1011.9 |
| 20260904155522 | 25 | 338 | 12.9 | 20.9 | 0.00 | 0.00 | 0.00 | 61 | 1012.0 |
| 20260904154522 | 25 | 315 | 8.0 | 19.3 | 0.00 | 0.00 | 0.00 | 60 | 1012.0 |
| 20260904153522 | 25 | 338 | 9.7 | 19.3 | 0.00 | 0.00 | 0.00 | 60 | 1011.9 |
| 20260904152521 | 24 | 23 | 6.4 | 14.5 | 0.00 | 0.00 | 0.00 | 64 | 1012.0 |
| 20260904151521 | 25 | 338 | 6.4 | 17.7 | 0.00 | 0.00 | 0.00 | 62 | 1012.0 |
| 20260904150521 | 25 | 338 | 4.8 | 11.3 | 0.00 | 0.00 | 0.00 | 64 | 1012.0 |
| 20260904145523 | 25 | 315 | 4.8 | 9.7 | 0.00 | 0.00 | 0.00 | 65 | 1012.1 |
| 20260904144521 | 24 | 293 | 4.8 | 9.7 | 0.00 | 0.00 | 0.00 | 66 | 1012.1 |
| 20260904143521 | 24 | 338 | 6.4 | 11.3 | 0.00 | 0.00 | 0.00 | 68 | 1012.1 |
| 20260904142521 | 24 | 248 | 4.8 | 9.7 | 0.00 | 0.00 | 0.00 | 71 | 1012.0 |
| 20260904141642 | 23 | 293 | 3.2 | 8.0 | 0.00 | 0.00 | 0.00 | 73 | 1012.1 |
| 20260904140543 | 22 | 338 | 1.6 | 4.8 | 0.00 | 0.00 | 0.00 | 77 | 1012.2 |
| 20260904135521 | 23 | 23 | 4.8 | 9.7 | 0.00 | 0.00 | 0.00 | 76 | 1012.0 |
| 20260904134521 | 22 | 23 | 4.8 | 11.3 | 0.00 | 0.00 | 0.00 | 78 | 1012.2 |
| 20260904133521 | 22 | 293 | 6.4 | 14.5 | 0.00 | 0.00 | 0.00 | 78 | 1012.4 |
| 20260904132521 | 22 | 293 | 4.8 | 14.5 | 0.00 | 0.00 | 0.00 | 80 | 1012.3 |
| 20260904131521 | 22 | 270 | 3.2 | 9.7 | 0.00 | 0.00 | 0.00 | 80 | 1012.2 |
| 20260904130521 | 22 | 293 | 3.2 | 8.0 | 0.00 | 0.00 | 0.00 | 81 | 1012.1 |
| 20260904125521 | 21 | 293 | 4.8 | 8.0 | 0.00 | 0.00 | 0.00 | 81 | 1011.9 |
| 20260904124521 | 21 | 23 | 3.2 | 8.0 | 0.00 | 0.00 | 0.00 | 81 | 1012.1 |
| 20260904123521 | 21 | 293 | 4.8 | 9.7 | 0.00 | 0.00 | 0.00 | 81 | 1012.1 |
| 20260904122541 | 21 | 270 | 1.6 | 6.4 | 0.00 | 0.00 | 0.00 | 81 | 1012.3 |
| 20260904121521 | 21 | 315 | 3.2 | 8.0 | 0.00 | 0.00 | 0.00 | 81 | 1012.2 |
| 20260904120521 | 21 | 293 | 1.6 | 6.4 | 0.00 | 0.00 | 0.00 | 82 | 1012.2 |
| 20260904115521 | 21 | 293 | 3.2 | 8.0 | 0.00 | 0.00 | 0.00 | 82 | 1012.1 |
| 20260904114521 | 21 | 293 | 3.2 | 8.0 | 0.00 | 0.00 | 0.00 | 82 | 1012.0 |
| 20260904113523 | 21 | 248 | 1.6 | 4.8 | 0.00 | 0.00 | 0.00 | 83 | 1012.0 |
| 20260904112522 | 20 | 293 | 3.2 | 8.0 | 0.00 | 0.00 | 0.00 | 83 | 1011.9 |
| 20260904111520 | 20 | 248 | 3.2 | 8.0 | 0.00 | 0.00 | 0.00 | 83 | 1011.9 |
| 20260904110541 | 20 | 293 | 1.6 | 4.8 | 0.00 | 0.00 | 0.00 | 83 | 1011.8 |
| 20260904105521 | 20 | 248 | 3.2 | 9.7 | 0.00 | 0.00 | 0.00 | 84 | 1011.5 |
| 20260904104522 | 20 | 270 | 1.6 | 3.2 | 0.00 | 0.00 | 0.00 | 83 | 1011.6 |
| 20260904103520 | 20 | 248 | 1.6 | 4.8 | 0.00 | 0.00 | 0.00 | 84 | 1011.7 |
| 20260904102520 | 20 | 248 | 1.6 | 4.8 | 0.00 | 0.00 | 0.00 | 85 | 1011.6 |
| 20260904101540 | 20 | 248 | 1.6 | 3.2 | 0.00 | 0.00 | 0.00 | 84 | 1011.3 |
| 20260904100520 | 20 | 270 | 1.6 | 4.8 | 0.00 | 0.00 | 0.00 | 83 | 1011.2 |
| 20260904095522 | 20 | 270 | 1.6 | 4.8 | 0.00 | 0.00 | 0.00 | 83 | 1011.2 |
| 20260904094520 | 20 | 270 | 1.6 | 3.2 | 0.00 | 0.00 | 0.00 | 83 | 1011.0 |
| 20260904093541 | 21 | 0.0 | 4.8 | 0.00 | 0.00 | 0.00 | 83 | 1011.1 | |
| 20260904092520 | 21 | 270 | 3.2 | 8.0 | 0.00 | 0.00 | 0.00 | 83 | 1011.0 |
| 20260904091520 | 21 | 270 | 4.8 | 9.7 | 0.00 | 0.00 | 0.00 | 83 | 1011.0 |
| 20260904090520 | 21 | 270 | 4.8 | 9.7 | 0.00 | 0.00 | 0.00 | 83 | 1010.9 |
| 20260904085520 | 21 | 293 | 1.6 | 8.0 | 0.00 | 0.00 | 0.00 | 83 | 1010.7 |
| 20260904084521 | 21 | 293 | 3.2 | 6.4 | 0.00 | 0.00 | 0.00 | 83 | 1010.7 |
| 20260904083520 | 21 | 293 | 3.2 | 8.0 | 0.00 | 0.00 | 0.00 | 83 | 1010.5 |
| 20260904082520 | 21 | 293 | 3.2 | 9.7 | 0.00 | 0.00 | 0.00 | 84 | 1010.6 |
| 20260904081520 | 21 | 293 | 1.6 | 6.4 | 0.00 | 0.00 | 0.00 | 84 | 1010.4 |
| 20260904080540 | 22 | 293 | 3.2 | 9.7 | 0.00 | 0.00 | 0.00 | 84 | 1010.4 |
| 20260904075521 | 21 | 293 | 3.2 | 8.0 | 0.00 | 0.00 | 0.00 | 84 | 1010.3 |
| 20260904074540 | 21 | 293 | 1.6 | 6.4 | 0.00 | 0.00 | 0.00 | 84 | 1010.2 |
| 20260904073520 | 21 | 293 | 3.2 | 6.4 | 0.00 | 0.00 | 0.00 | 86 | 1010.1 |
| 20260904072522 | 21 | 293 | 3.2 | 6.4 | 0.00 | 0.00 | 0.00 | 88 | 1010.0 |
| 20260904071520 | 21 | 0.0 | 1.6 | 0.00 | 0.00 | 0.00 | 90 | 1010.0 | |
| 20260904070520 | 21 | 0.0 | 1.6 | 0.00 | 0.00 | 0.00 | 90 | 1010.1 | |
| 20260904065520 | 21 | 0.0 | 3.2 | 0.00 | 0.00 | 0.00 | 90 | 1010.0 | |
| 20260904064520 | 21 | 0.0 | 0.0 | 0.00 | 0.00 | 0.00 | 90 | 1010.0 | |
| 20260904063520 | 21 | 0.0 | 0.0 | 0.00 | 0.00 | 0.00 | 90 | 1010.1 | |
| 20260904062522 | 21 | 0.0 | 0.0 | 0.00 | 0.00 | 0.00 | 90 | 1010.2 | |
| 20260904061541 | 21 | 0.0 | 1.6 | 0.00 | 0.00 | 0.00 | 90 | 1010.2 | |
| 20260904060521 | 21 | 0.0 | 0.0 | 0.00 | 0.00 | 0.00 | 90 | 1010.4 | |
| 20260904055521 | 21 | 0.0 | 1.6 | 0.00 | 0.00 | 0.00 | 90 | 1010.5 | |
| 20260904054521 | 21 | 0.0 | 0.0 | 0.00 | 0.00 | 0.00 | 90 | 1010.4 | |
| 20260904053521 | 21 | 0.0 | 0.0 | 0.00 | 0.00 | 0.00 | 90 | 1010.5 | |
| 20260904052524 | 21 | 0.0 | 3.2 | 0.00 | 0.00 | 0.00 | 90 | 1010.6 | |
| 20260904051522 | 21 | 158 | 1.6 | 4.8 | 0.00 | 0.00 | 0.00 | 89 | 1010.7 |
| 20260904050521 | 21 | 180 | 1.6 | 3.2 | 0.00 | 0.00 | 0.00 | 89 | 1010.7 |
| 20260904045521 | 21 | 158 | 3.2 | 6.4 | 0.00 | 0.00 | 0.00 | 89 | 1010.8 |
| 20260904044521 | 21 | 180 | 3.2 | 6.4 | 0.00 | 0.00 | 0.00 | 89 | 1010.7 |
| 20260904043521 | 21 | 180 | 4.8 | 8.0 | 0.00 | 0.00 | 0.00 | 88 | 1010.7 |
| 20260904042521 | 21 | 180 | 1.6 | 6.4 | 0.00 | 0.00 | 0.00 | 88 | 1010.7 |
| 20260904041541 | 21 | 0.0 | 3.2 | 0.00 | 0.00 | 0.00 | 87 | 1010.6 | |
| 20260904040541 | 21 | 0.0 | 0.0 | 0.00 | 0.00 | 0.00 | 87 | 1010.4 | |
| 20260904035521 | 21 | 0.0 | 3.2 | 0.00 | 0.00 | 0.00 | 87 | 1010.6 | |
| 20260904034521 | 21 | 158 | 1.6 | 3.2 | 0.00 | 0.00 | 0.00 | 86 | 1010.5 |
| 20260904033521 | 22 | 203 | 1.6 | 3.2 | 0.00 | 0.00 | 0.00 | 86 | 1010.5 |
| 20260904032521 | 22 | 180 | 3.2 | 6.4 | 0.00 | 0.00 | 0.00 | 85 | 1010.4 |
| 20260904031541 | 22 | 180 | 1.6 | 6.4 | 0.00 | 0.00 | 0.00 | 84 | 1010.6 |
| 20260904030522 | 22 | 0.0 | 3.2 | 0.00 | 0.00 | 0.00 | 84 | 1010.7 | |
| 20260904025521 | 22 | 180 | 1.6 | 4.8 | 0.00 | 0.00 | 0.00 | 83 | 1010.7 |
| 20260904024521 | 22 | 203 | 4.8 | 8.0 | 0.00 | 0.00 | 0.00 | 84 | 1010.7 |
| 20260904023521 | 22 | 180 | 3.2 | 4.8 | 0.00 | 0.05 | 0.00 | 83 | 1010.7 |
| 20260904022521 | 22 | 158 | 3.2 | 4.8 | 0.00 | 0.05 | 0.00 | 81 | 1010.9 |
| 20260904021521 | 23 | 158 | 3.2 | 4.8 | 0.00 | 0.08 | 0.00 | 79 | 1010.6 |
| 20260904020521 | 23 | 0.0 | 1.6 | 0.00 | 0.08 | 0.00 | 78 | 1010.8 | |
| 20260904015521 | 23 | 180 | 1.6 | 3.2 | 0.00 | 0.08 | 0.00 | 77 | 1010.9 |
| 20260904014521 | 23 | 0.0 | 1.6 | 0.00 | 0.13 | 0.00 | 75 | 1010.9 | |
| 20260904013521 | 24 | 0.0 | 3.2 | 0.00 | 0.13 | 0.00 | 73 | 1011.0 | |
| 20260904012522 | 25 | 0.0 | 1.6 | 0.00 | 0.13 | 0.00 | 70 | 1010.5 | |
| 20260904011541 | 25 | 23 | 1.6 | 3.2 | 0.00 | 0.15 | 0.00 | 69 | 1010.7 |